#timestamp,LO_Frequency,Hit,StdDev 
1677762015.4,286047004.2,N
1677762035.3,286047006.0,N
1677762055.1,286047006.2,N
1677762075.8,286047009.8,N
1677762095.7,286047006.5,N
1677762115.5,286047004.6,N
1677762135.4,286047003.1,N
1677762155.2,286047002.1,N
1677762175.0,286046998.1,N
1677762175.9,286046998.1,N
1677762195.8,286046995.7,N
1677762215.6,286046996.2,N
1677762235.4,286047000.9,N
1677762255.3,286046998.4,N
1677762275.1,286046995.8,N
1677762295.9,286046992.8,N
1677762315.7,286046991.8,N
1677762335.5,286046994.1,N
1677762355.4,286046994.8,N
1677762375.2,286046993.9,N
1677762395.0,286046992.3,N
1677762396.0,286046992.3,N
1677762415.8,286046993.4,N
1677762435.6,286046992.6,N
1677762455.5,286046989.4,N
1677762475.3,286046989.7,N
1677762495.1,286046993.0,N
1677762545.9,286046987.1,E
1677762555.8,286046992.8,N
1677762575.7,286047002.5,P
1677762595.5,286047004.4,N
1677762615.3,286047000.0,N
1677762635.2,286046995.1,N
1677762655.0,286046993.7,N
1677762655.9,286046993.7,N
1677762675.8,286046993.5,N
1677762695.6,286046992.9,N
1677762715.4,286046989.5,N
1677762735.3,286046986.4,N
1677762755.1,286046984.0,Y
1677762775.9,286046989.5,P
1677762795.7,286046990.2,P
1677762815.5,286046994.5,N
1677762835.4,286046994.4,N
1677762855.2,286046997.8,N
1677762875.0,286046997.3,N
1677762875.9,286046997.3,N
1677762895.8,286046996.3,N
1677762915.6,286046991.7,N
1677762935.5,286046992.6,N
1677762955.3,286046990.6,Y
1677762975.1,286046992.0,P
1677762995.9,286047001.2,N
1677763015.7,286047005.5,N
1677763035.5,286047009.2,N
1677763055.4,286047005.1,N
1677763075.2,286047010.8,N
1677763095.0,286047010.3,N
1677763096.0,286047010.3,N
1677763115.8,286047007.4,N
1677763135.6,286047003.0,N
1677763155.5,286047009.1,N
1677763175.3,286047009.0,N
1677763195.1,286047006.1,N
1677763215.9,286047004.8,N
1677763235.7,286047003.2,N
1677763255.5,286047003.4,N
1677763275.4,286047003.7,N
1677763295.2,286047000.1,N
1677763315.1,286047001.1,N
1677763316.0,286047001.1,N
1677763335.8,286046997.6,N
1677763355.6,286046993.6,N
1677763375.5,286046994.1,N
1677763395.3,286046988.5,N
1677763415.1,286046991.3,N
1677763435.9,286046989.9,N
1677763455.7,286046988.8,N
1677763475.6,286046988.5,N
1677763495.4,286046985.0,N
1677763515.2,286046980.7,N
1677763535.1,286046984.2,N
1677763536.0,286046984.2,N
1677763555.8,286046985.4,N
1677763575.6,286046988.2,N
1677763595.5,286046986.5,N
1677763615.3,286046989.5,N
1677763635.2,286046986.5,N
1677763655.9,286046978.9,N
1677763675.7,286046975.3,N
1677763695.6,286046974.3,N
1677763715.4,286046980.3,N
1677763735.2,286046978.9,N
1677763755.1,286046983.1,N
1677763756.0,286046983.1,N
1677763775.8,286046983.8,N
1677763795.7,286046990.9,N
1677763815.5,286046993.6,N
1677763835.3,286046998.9,N
1677763855.2,286046996.8,N
1677763875.0,286046994.3,N
1677763875.9,286046994.3,N
1677763895.7,286046993.6,N
1677763915.9,286046997.7,N
1677763935.7,286046992.3,N
1677763955.5,286046990.6,N
1677763975.4,286046989.7,N
1677763995.2,286046988.7,N
1677764015.1,286046988.7,N
1677764016.0,286046988.7,N
1677764035.8,286046996.0,N
1677764055.6,286046999.5,N
1677764075.5,286046998.7,N
1677764095.3,286046997.9,N
1677764115.1,286046994.6,N
1677764135.9,286046989.1,N
1677764155.7,286046988.1,N
1677764175.6,286046990.7,N
1677764195.4,286046992.7,N
1677764215.2,286046998.4,N
1677764235.1,286047004.6,N
1677764236.0,286047004.6,N
1677764255.8,286047005.4,N
1677764275.6,286047002.1,N
1677764295.5,286047002.5,N
1677764315.3,286046998.0,N
1677764335.2,286046994.1,N
1677764355.9,286046997.2,N
1677764375.7,286046993.1,N
1677764395.6,286046992.7,N
1677764415.4,286047000.9,N
1677764435.2,286047002.0,N
1677764455.1,286047002.8,N
1677764456.0,286047002.8,N
1677764475.8,286046995.6,N
1677764495.7,286046996.2,N
1677764515.5,286046998.2,N
1677764535.3,286046995.8,N
1677764555.2,286046992.1,N
1677764575.0,286046988.8,N
1677764575.9,286046988.8,N
1677764595.7,286046986.2,N
1677764615.6,286046986.0,N
1677764635.4,286046987.3,N
1677764655.3,286046989.1,N
1677764675.1,286046985.0,N
1677764676.0,286046985.0,N
1677764695.8,286046981.3,N
1677764715.7,286046981.4,N
1677764735.5,286046980.9,N
1677764755.3,286046980.1,N
1677764775.2,286046976.0,Y
1677764795.0,286046981.5,P
1677764795.9,286046981.5,P
1677764815.8,286046979.2,P
1677764835.6,286046982.0,Y
1677764855.4,286046999.0,P
1677764875.3,286046999.7,N
1677764895.1,286046997.2,N
1677764915.9,286046993.2,N
1677764935.7,286046996.1,N
1677764955.5,286046995.9,N
1677764975.4,286046996.7,N
1677764995.2,286046995.9,N
1677765015.0,286046991.7,N
1677765015.9,286046991.7,N
1677765035.8,286046996.9,N
1677765055.6,286046999.7,N
1677765075.5,286047000.3,N
1677765095.3,286046997.1,N
1677765115.1,286046998.8,N
1677765135.9,286046998.4,N
1677765155.7,286046995.4,N
1677765175.5,286046996.4,N
1677765195.4,286046994.2,N
1677765215.2,286046997.6,N
1677765235.0,286046993.3,N
1677765236.0,286046993.3,N
1677765255.8,286046995.5,N
1677765275.6,286046997.8,N
1677765295.5,286047001.8,N
1677765315.3,286046998.5,N
1677765335.1,286046995.5,N
1677765355.9,286046995.5,N
1677765375.7,286046995.1,N
1677765395.6,286046996.7,N
1677765415.4,286046998.2,N
1677765435.2,286047001.3,N
1677765455.1,286047002.9,N
1677765456.0,286047002.9,N
1677765475.8,286047005.6,N
1677765495.6,286047006.7,N
1677765515.5,286047004.8,N
1677765535.3,286047008.7,N
1677765555.1,286047012.1,N
1677765575.9,286047013.0,N
1677765595.7,286047009.6,N
